Погода в Ангрене

Узбекистан     41°00′45″N   70°05′07″E
темп.,
°C
ветер,
м/с
пор.,
м/с
влажн.,
%
обл.,
%
осадки,
мм/ч
давл.,
гПа
погр.,
м
1 марта, пн
пн123:00+1всв344334 0.0 102230
02:00+2всв2339100 0.0 102123
05:00+3всв3434100 0.0 102227
08:00+3всв3437100 0.0 102234
11:00+8всв225464 0.0 1020150
14:00+10в01460 0.0 1020365
17:00+7в12540 0.0 102023
20:00+4св45360 0.0 102231
2 марта, вт
вт223:00+4св34390 0.0 102335
02:00+4св344033 0.0 102328
05:00+4св344167 0.0 102226
08:00+5св2344100 0.0 102427
11:00+8всв1147100 0.0 1023198
14:00+10ююв1140100 0.0 1021781
17:00+8з2352100 0.0 1021140
20:00+5св3365100 0.1 102354
3 марта, ср
ср323:00+4св3469100 0.1 102365
02:00+3с1179100 0.3 102327
05:00+1ююв1197100 2.6 102384
08:00+2в1191100 0.8 1024101
11:00+3юв1191100 1.1 1023218
14:00+5ююв2274100 0.3 1021570
17:00+4в2277100 1.3 1021308
20:00+2ююв1190100 1.9 102280
4 марта, чт
чт423:00+2всв3383100 2.6 102266
02:00+3всв347579 0.1 102163
05:00+3всв446959 0.1 102153
08:00+4всв45650 0.0 102076
11:00+8всв446147 0.1 1018371
14:00+9ссв236088 0.2 1017970
17:00+5зюз239094 3.3 1018408
20:00+5в2289100 3.1 102099
5 марта, пт
пт523:00+4в128292 3.5 102125
02:00+4ю1189100 1.2 102267
05:00+2зюз6798100 3.8 1024378
08:00−1юз3399100 5.6 1028221
11:000ююз119698 6.9 1028188
14:00+3ююз117757 0.0 1026447
17:00+4ссз127135 0.0 1025345
20:00+1всв45634 0.0 102564